www.pogodaiklimat.ru

Погода и климат >> Архив погоды >> Малайзия >> Кота-Бхару


ПОГОДА в Кота-Бхару

  • Прогноз погоды в Кота-Бхару
  • Монитор погоды в Кота-Бхару

АРХИВ ПОГОДЫ в Кота-Бхару

Время (UTC), дата Ветер
(напр.,м/с)
 
Видим.   Явления Облачность Т
(С)
Тd
(С)
f
(%)
Тe
(С)
Тes
(С)
Комфортность P
(гПа)
Po
(гПа)
Тmin
(С)
Tmax
(С)
R
(мм)
R24
(мм)
S
(см)
18 18.06 ЮЗ 1 10 км слаб. дождь 10/4 600 м
[Sc Ac trans Cs]
+24.7 +24.0 96 +34 +34 очень
душно
1010.5 1009.9 0.4
21 18.06 ЮЗ 1 10 км в посл. час дождь 10/3 600 м
[Sc Ac lent Cs]
+24.4 +23.9 97 +33 +33 очень
душно
1009.0 1008.4
00 19.06 Ю 2 12 км {дождь} 9/3 1000 м
[Sc Ac lent Ci sp]
+24.7 +24.0 96 +34 +34 очень
душно
1009.7 1009.1 +23.2 54
03 19.06 ЮЗ 2 12 км 9/1 540 м
[Cu hum Ac lent Cs]
+29.3 +24.8 77 +42 +50 опасность
перегрева
1010.1 1009.5
06 19.06 СВ 3 14 км 9/1 540 м
[Cu hum Ac As Ci sp]
+31.7 +26.4 74 +48 +56 опасность
перегрева
1008.4 1007.8
09 19.06 В 4 14 км 9/1 540 м
[Cu med, cong Ac trans Ci sp]
+31.6 +26.1 73 +48 +50 опасность
перегрева
1006.3 1005.7
12 19.06 В 2 10 км 9/4 500 м
[Cb cap Ac trans Ci sp]
+28.9 +25.2 80 +42 +42 опасность
перегрева
1007.2 1006.6 +33.0
15 19.06 В 1 10 км 9/3 600 м
[Sc Ac trans Ci sp]
+28.0 +26.4 91 +43 +43 опасность
перегрева
1009.0 1008.4
18 19.06 Ю 1 12 км 9/1 600 м
[Sc Ac und Ci sp]
+27.8 +26.4 92 +42 +42 опасность
перегрева
1008.5 1007.9
21 19.06 штиль 0 10 км 9/3 600 м
[Sc Ac trans Ci sp]
+27.1 +26.1 94 +41 +41 опасность
перегрева
1008.1 1007.5
00 20.06 ЮЗ 2 12 км 8/3 1000 м
[Cb cap Ac trans Ci sp]
+26.6 +25.2 92 +38 +39 очень
душно
1009.6 1009.0 +24.7
03 20.06 ЮЗ 1 10 км гроза, ливневой дождь 9/3 500 м
[Cb cap Ac trans Cs]
+28.0 +25.7 87 +41 +48 опасность
перегрева
1010.8 1010.2
06 20.06 СЗ 2 14 км 8/1 540 м
[Cu hum Ac trans Cs]
+30.7 +26.6 79 +47 +59 опасность
перегрева
1008.4 1007.8 0.0
09 20.06 З 2 14 км 9/3 540 м
[Cu Sc Ac trans Ci sp]
+31.0 +25.4 72 +45 +48 опасность
перегрева
1006.9 1006.3
12 20.06 В 1 10 км 9/3 600 м
[Sc Ac trans Ci sp]
+29.1 +26.3 85 +44 +44 опасность
перегрева
1008.0 1007.4 +31.4
15 20.06 Ю 2 10 км зарница 9/3 500 м
[Cb cap Ac trans Ci sp]
+27.1 +24.8 87 +39 +39 очень
душно
1010.1 1009.5
18 20.06 ЮЗ 2 10 км 9/1 600 м
[Sc Ac trans Ci sp]
+25.9 +24.6 93 +37 +37 очень
душно
1008.7 1008.1
21 20.06 ЮЗ 2 10 км дымка 9/1 600 м
[Sc Ac trans Ci sp]
+24.9 +24.5 98 +35 +35 очень
душно
1007.7 1007.1
00 21.06 ЮЗ 1 12 км 8/1 <50 м
[Sc Ac trans Ci fib]
+25.9 +23.7 88 +35 +36 очень
душно
1009.0 1008.4 +24.7 0.0
03 21.06 З 3 14 км 8/1 540 м
[Cu hum Ac und Ci fib]
+30.3 +23.9 69 +42 +49 опасность
перегрева
1009.3 1008.7
06 21.06 С 4 14 км 9/1 540 м
[Cu hum Ac trans Ci sp]
+31.4 +25.6 71 +46 +52 опасность
перегрева
1008.2 1007.6
09 21.06 С 3 14 км 9/1 540 м
[Cu hum Ac und Ci sp]
+30.9 +25.7 74 +46 +48 опасность
перегрева
1006.3 1005.7
12 21.06 С 3 12 км 9/1 600 м
[Sc Ac lent Cs]
+29.5 +25.6 80 +44 +44 опасность
перегрева
1006.8 1006.2 +32.2
15 21.06 Ю 1 12 км 9/3 600 м
[Sc Ac lent Cs]
+28.8 +25.8 84 +43 +43 опасность
перегрева
1008.8 1008.2
18 21.06 ЮЗ 1 12 км 9/3 600 м
[Sc Ac trans Cs]
+27.7 +25.5 88 +41 +41 опасность
перегрева
1007.7 1007.1
21 21.06 штиль 0 10 км 9/3 600 м
[Sc Ac trans Cs]
+25.9 +25.0 95 +37 +37 очень
душно
1006.4 1005.8
00 22.06 ЮЗ 1 12 км 9/3 1000 м
[Cu Sc Ac trans Ci sp]
+26.1 +24.7 92 +37 +38 очень
душно
1007.2 1006.6 +25.7
03 22.06 З 2 12 км 9/1 540 м
[Cu hum Ac trans Ci sp]
+31.0 +23.9 66 +43 +50 опасность
перегрева
1007.8 1007.2
06 22.06 З 2 12 км 10/1 540 м
[Cu hum Ac lent Cs]
+32.9 +25.2 64 +47 +56 опасность
перегрева
1005.8 1005.2
09 22.06 СВ 3 12 км 10/3 500 м
[Cb cap Ac und Cs]
+31.2 +25.6 72 +46 +48 опасность
перегрева
1005.4 1004.8
12 22.06 Ю 2 9000 м гроза, ливневой дождь 10/5 300 м
[Cb cap Ac trans Cs]
+24.7 +24.0 96 +34 +34 очень
душно
1006.9 1006.3 +33.2 13
15 22.06 В 1 9000 м слаб. дождь 10/5 270 м
[Sc Ac trans Cs]
+24.3 +23.9 98 +33 +33 очень
душно
1009.2 1008.6
18 22.06 штиль 0 10 км слаб. дождь 10/4 240 м
[Sc Ac trans Cs]
+24.4 +23.7 96 +33 +33 очень
душно
1007.8 1007.2 0.0
21 22.06 ЮЗ 2 10 км 9/4 300 м
[Sc Ac trans Cs]
+24.2 +23.8 98 +33 +33 очень
душно
1006.4 1005.8
00 23.06 ЮЗ 2 14 км 9/3 1000 м
[Cu Sc Ac trans Ci fib]
+24.6 +23.5 94 +33 +34 очень
душно
1007.7 1007.1 +24.0 13
03 23.06 З 4 14 км 9/3 540 м
[Cu hum Ac trans Ci fib]
+29.5 +24.7 75 +42 +46 опасность
перегрева
1008.4 1007.8
06 23.06 СЗ 5 12 км 9/4 540 м
[Cu Sc Ac trans Cs]
+29.6 +25.3 78 +43 +47 опасность
перегрева
1006.7 1006.1 0.0
09 23.06 СЗ 3 12 км 9/3 600 м
[Sc Ac trans Cs]
+28.8 +24.7 79 +41 +43 опасность
перегрева
1005.7 1005.1
12 23.06 штиль 0 10 км зарница 9/4 500 м
[Cb cap Ac trans Cs]
+28.5 +25.7 85 +42 +42 опасность
перегрева
1007.4 1006.8 +30.2
15 23.06 ЮВ 2 7000 м слаб. дождь 9/4 500 м
[Cb cap Ac trans Cs]
+24.9 +24.1 95 +34 +34 очень
душно
1009.5 1008.9
18 23.06 Ю 2 9000 м слаб. дождь 10/4 600 м
[Sc Ac lent Cs]
+24.5 +23.7 95 +33 +33 очень
душно
1008.7 1008.1 0.0
21 23.06 ЮЗ 1 10 км 10/3 600 м
[Sc Ac trans Cs]
+24.4 +23.9 97 +33 +33 очень
душно
1007.5 1006.9
00 24.06 ЮЗ 2 10 км 8/1 <50 м
[Cu med, cong Ac trans Ci sp]
+24.9 +24.2 96 +34 +35 очень
душно
1008.9 1008.3 +24.3 3
03 24.06 Ю 2 14 км 8/1 540 м
[Cu hum Ac trans Ci sp]
+30.5 +17.1 45 +34 +43 очень
душно
1009.7 1009.1
06 24.06 В 4 14 км 6/3 540 м
[Cu med, cong Ac trans Ci sp]
+32.1 +26.5 72 +49 +56 опасность
перегрева
1007.8 1007.2
09 24.06 В 4 14 км 6/3 540 м
[Cu med, cong Ac trans Ci sp]
+31.8 +26.6 74 +49 +51 опасность
перегрева
1006.2 1005.6
12 24.06 В 2 12 км зарница 9/1 500 м
[Cb cap Ac trans Ci sp]
+29.1 +26.3 85 +44 +44 опасность
перегрева
1007.8 1007.2 +29.8
15 24.06 штиль 0 12 км в посл. час гроза 9/3 600 м
[Sc Ac trans Ci sp]
+28.9 +27.0 90 +46 +46 опасность
перегрева
1009.8 1009.2
18 24.06 З 2 10 км гроза без осадков 9/4 500 м
[Cb cap Ac lent Ci sp]
+27.6 +26.1 92 +42 +42 опасность
перегрева
1009.0 1008.4
21 24.06 ЮЗ 2 12 км гроза без осадков 9/4 500 м
[Cb cap Ac trans Ci fib]
+27.4 +26.0 92 +41 +41 опасность
перегрева
1008.5 1007.9
00 25.06 штиль 0 10 км 9/4 540 м
[Cu med, cong Ac trans Cs]
+27.1 +25.8 93 +40 +41 очень
душно
1010.2 1009.6 +26.8
03 25.06 Ю 2 12 км 9/3 540 м
[Cu hum Ac cuf Ci sp]
+29.4 +25.6 80 +43 +50 опасность
перегрева
1010.6 1010.0
06 25.06 СВ 4 12 км 9/4 540 м
[Cu med, cong Ac trans Ci sp]
+30.9 +26.5 77 +47 +52 опасность
перегрева
1008.4 1007.8
09 25.06 СВ 4 10 км 9/4 500 м
[Cb cap Ac trans Ci sp]
+31.7 +27.3 78 +50 +52 опасность
перегрева
1007.3 1006.7
12 25.06 СЗ 1 4000 м гроза, ливневой дождь 10/5 240 м
[Cb cap Ac lent Cs]
+23.9 +23.4 97 +32 +32 очень
душно
1010.0 1009.4 +33.0 52
15 25.06 Ю 2 8000 м слаб. ливневой дождь, в посл. час гроза 10/5 180 м
[Cb cap Ac trans Cs]
+25.1 +24.4 96 +35 +35 очень
душно
1012.3 1011.7

 

Местоположение метеостанции Кота-Бхару (Малайзия): широта 6.17 долгота 102.28 высота над уровнем моря 5 м.

В архиве по умолчанию представлена погода в Кота-Бхару за последнюю неделю. Архивные данные за месяц целиком и за предыдущие месяцы, начиная с января 2011 года, Вы можете получить, выбрав интересующий диапазон дат из раскрывающегося списка и нажав кнопку "Ввод!".


*Определитесь, кто Вы:
робот инопланетянин человек

Внимание! Время в таблицах - всемирное. Для получения местного времени необходимо прибавить поправку, которая равна 7 ч.

Смотрите также архив погоды в соседних городах и на ближайших метеорологических станциях:

Погода в Наратхивате (Таиланд) (59 км)
Погода в Яла Агромете (Таиланд) (117 км)
Погода в Куала-Тренггану (Малайзия) (126 км)
Погода в Паттани (Таиланд) (142 км)
Погода в Мерсинге (Малайзия) (189 км)
Погода в Алор Стар (Малайзия) (208 км)
Погода на Нагорье Кэмерон (Малайзия) (214 км)
Погода в Сонгкхле (Таиланд) (217 км)
Погода в Садао (Таиланд) (219 км)
Погода в Ипохе (Малайзия) (221 км)

Пояснения к столбцам:

Ветер - указаны скорость ветра в м/с - средняя за 10 мин, порывы в срок и между сроками (в фигурных скобках) и направление, откуда дует ветер: С - северный, СВ - северо-восточный, В - восточный, ЮВ - юго-восточный, Ю - южный, ЮЗ - юго-западный, З - западный, СЗ - северо-западный.
Видимость - горизонтальная дальность видимости в метрах или километрах. При видимости от 1 до 10 км при отсутствии осадков обычно наблюдается дымка, при ухудшении видимости до 1 км и менее - туман. В сухую погоду видимость может ухудшаться дымом, пылью или мглою.
Явления - указаны атмосферные явления, наблюдавшиеся в срок или в последний час перед сроком; фигурными скобками обозначены явления, наблюдавшиеся между сроками (за 1-3 часа до срока); квадратными скобками обозначены град или гололедные отложения с указанием их диаметра в мм.
Облачность - указаны через наклонную черту общая и нижняя облачность в баллах и высота нижней границы облаков в метрах; квадратными скобками обозначены формы облаков: Ci - перистые, Cs - перисто-слоистые, Cc - перисто-кучевые, Ac - высококучевые, As - высокослоистые, Sc - слоисто-кучевые, Ns - слоисто-дождевые, Cu - кучевые, Cb - кучево-дождевые. Подробнее классификацию облаков см. в Атласе облаков (PDF).
T - Температура воздуха - температура, измеренная на высоте 2 м над землей.
Td - Температура точки росы - температура, при понижении до которой содержащийся в воздухе водяной пар достигнет насыщения.
f - Относительная влажность воздуха - влажноcть воздуха, измеренная на высоте 2 м над землей.
Te - Эффективная температура - температура, которую ощущает одетый по сезону человек в тени. Характеристика душности погоды. При расчете учитывается влияние влажности воздуха и скорости ветра на теплоощущения человека.
Tes - Эффективная температура на солнце - температура, которую ощущает человек, с поправкой на солнечный нагрев. Характеристика знойности погоды. Зависит от высоты солнца над горизонтом, облачности и скорости ветра. Ночью, в пасмурную погоду, а также при ветре 12 м/с и более поправка равна нулю.
P - Атмосферное давление - приведенное к уровню моря атмосферное давление.
Po - Атмосферное давление - измеренное на уровне метеостанции атмосферное давление.
Tmin - Минимальная температура - минимум температуры воздуха на высоте 2 м над землей.
Tmax - Максимальная температура - максимум температуры воздуха на высоте 2 м над землей.
R - Количество осадков - Количество выпавших осадков за период времени, мм. При наведении курсора мыши на число - период времени, за который выпало указанное количество осадков.
R24 - Количество осадков - Количество выпавших осадков за 24 часа, мм.
S - Снежный покров - Высота снежного покрова, см. При наведении курсора мыши на число - состояние снежного покрова и степень покрытия местности в баллах.